STARLINK-33579 (62764 NORAD) Tracking and Keplerian Element Data

This shows tracking and keplerian element data for the satellite.

Feedback or suggestion? Click here.




ElementValue
Catalog62764
NameSTARLINK-33579
Epoch Orbit339
Epoch Day35.25001157
Epoch Year2025
RAAN18.6985
Inclination53.1601
Eccentricity0.0001209
Argument of Perigee72.6921
Mean Anonmoly193.7904
Mean Motion15.78820118
Decay Rate-0.00971913
L11 62764U 25015G 25035.25001157 -.00971913 00000+0 -60513-2 0 9992
L22 62764 53.1601 18.6985 0001209 72.6921 193.7904 15.78820118 3398



Live tracking and technical data element details for STARLINK-33579 (NORAD 62764). STARLINK-33579 can be tracked NOW for your location showing map with azimuth and elevation plus other details from your city location.







IsCatalogInMostPopularTable: catalog: 62764, numindb: 158
Update: records affected: 1



GetName: 62764 STARLINK-33579

Hit Count: updated at: Mon, 17 Nov 2025 19:31:57 GMT